This demonstration page uses our WeatherBlox Daily Observations layout. Learn more.

Left ArrowRight Arrow

Hourly Observations for August 18, 2022

Temp ( °F °C ) Dew Point ( °F °C ) Humidity (%) Winds ( mph kmh ) Pressure ( in mb ) Visibility ( mi km ) Precip ( " mm )
12:53 am 00:53 Clear 57 13.9 38 3.3 49 49 Calm 30.05 1018 10 16 0.00 0.00
1:53 am 01:53 Clear 48 8.9 39 3.9 71 71 VRB 3 6 30.08 1019 10 16 0.00 0.00
2:53 am 02:53 Clear 50 10 37 2.8 61 61 Calm 30.08 1019 10 16 0.00 0.00
3:53 am 03:53 Clear 48 8.9 38 3.3 68 68 ESE 3 6 30.09 1019 10 16 0.00 0.00
4:53 am 04:53 Clear 48 8.9 39 3.9 71 71 ESE 6 9 30.10 1019 10 16 0.00 0.00
5:53 am 05:53 Clear 46 7.8 38 3.3 73 73 Calm 30.11 1020 10 16 0.00 0.00
6:53 am 06:53 Sunny 45 7.2 37 2.8 74 74 W 3 6 30.14 1021 10 16 0.00 0.00
7:53 am 07:53 Sunny 55 12.8 39 3.9 55 55 Calm 30.14 1021 10 16 0.00 0.00
8:53 am 08:53 Sunny 62 16.7 41 5 46 46 Calm 30.15 1021 10 16 0.00 0.00
9:53 am 09:53 Mostly Sunny 70 21.1 44 6.7 39 39 WSW 5 7 30.12 1020 10 16 0.00 0.00
10:53 am 10:53 Mostly Sunny 77 25 43 6.1 30 30 Calm 30.11 1020 10 16 0.00 0.00
11:53 am 11:53 Sunny 83 28.3 34 1.1 17 17 N 3 6 30.07 1018 10 16 0.00 0.00
12:53 pm 12:53 Sunny 86 30 33 0.6 15 15 WNW 6 9 30.04 1017 10 16 0.00 0.00
1:53 pm 13:53 Mostly Sunny 89 31.7 33 0.6 14 14 E 7 11 30.02 1017 10 16 0.00 0.00
2:53 pm 14:53 Mostly Sunny 88 31.1 31 -0.6 13 13 VRB 5 7 30.00 1016 10 16 0.00 0.00
3:53 pm 15:53 Partly Cloudy 92 33.3 34 1.1 13 13 VRB 5 7 29.96 1015 10 16 0.00 0.00
4:53 pm 16:53 Mostly Sunny 90 32.2 35 1.7 14 14 VRB 5 7 29.95 1014 10 16 0.00 0.00
5:53 pm 17:53 Sunny 86 30 43 6.1 22 22 ESE 5 7 29.95 1014 10 16 0.00 0.00
6:53 pm 18:53 Sunny 86 30 38 3.3 18 18 NE 3 6 29.94 1014 10 16 0.00 0.00
7:53 pm 19:53 Sunny 79 26.1 38 3.3 23 23 E 5 7 29.95 1014 10 16 0.00 0.00
8:53 pm 20:53 Clear 71 21.7 40 4.4 32 32 ESE 6 9 29.96 1015 10 16 0.00 0.00
9:53 pm 21:53 Clear 64 17.8 40 4.4 41 41 Calm 29.98 1015 10 16 0.00 0.00
10:53 pm 22:53 Clear 60 15.6 39 3.9 46 46 Calm 29.97 1015 10 16 0.00 0.00
11:53 pm 23:53 Clear 58 14.4 40 4.4 51 51 VRB 3 6 29.94 1014 10 16 0.00 0.00

Powered by AerisWeather